FDX278 KLAX-KLAS

Flight info

Callsign FDX278
Flight time N/A
Altitude 29000
Route ORCKA5 MISEN RNDRZ4
Aircraft A306/H-SDE3FGHIRWY/LB1

Departure

Time 2026-04-21 03:35
Airport Los Angeles International Airport (KLAX)

Arrival

Time N/A
Airport Harry Reid International Airport (KLAS)
Time Latitude Longitude Altitude Speed Heading
2026-04-21 03:05 33.93410 -118.38705 104 ft 0 kts 174°
2026-04-21 03:05 33.93409 -118.38706 104 ft 0 kts 173°
2026-04-21 03:25 33.93416 -118.38707 101 ft 2 kts 174°
2026-04-21 03:25 33.93436 -118.38708 103 ft 3 kts 181°
2026-04-21 03:25 33.93456 -118.38706 101 ft 3 kts 194°
2026-04-21 03:25 33.93474 -118.38698 103 ft 3 kts 221°
2026-04-21 03:26 33.93484 -118.38684 102 ft 1 kts 262°
2026-04-21 03:26 33.93483 -118.38689 102 ft 2 kts 263°
2026-04-21 03:26 33.93481 -118.38713 101 ft 3 kts 263°
2026-04-21 03:26 33.93479 -118.38729 101 ft 1 kts 263°
2026-04-21 03:27 33.93479 -118.38730 104 ft 0 kts 263°
2026-04-21 03:29 33.93479 -118.38731 104 ft 2 kts 264°
2026-04-21 03:29 33.93501 -118.38782 103 ft 12 kts 322°
2026-04-21 03:29 33.93556 -118.38764 107 ft 7 kts 52°
2026-04-21 03:29 33.93568 -118.38687 106 ft 16 kts 82°
2026-04-21 03:30 33.93580 -118.38576 105 ft 10 kts 82°
2026-04-21 03:30 33.93583 -118.38518 106 ft 5 kts 87°
2026-04-21 03:30 33.93590 -118.38478 106 ft 8 kts 75°
2026-04-21 03:30 33.93602 -118.38377 106 ft 14 kts 81°
2026-04-21 03:31 33.93630 -118.38291 106 ft 0 kts 36°
2026-04-21 03:33 33.93645 -118.38284 109 ft 7 kts 21°
2026-04-21 03:33 33.93723 -118.38295 114 ft 13 kts 324°
2026-04-21 03:34 33.93731 -118.38346 115 ft 0 kts 263°
2026-04-21 03:34 33.93719 -118.38459 115 ft 46 kts 263°
2026-04-21 03:35 33.93647 -118.39161 111 ft 120 kts 263°
2026-04-21 03:35 33.93516 -118.40406 243 ft 177 kts 262°
2026-04-21 03:35 33.93346 -118.41942 827 ft 177 kts 261°
2026-04-21 03:35 33.93190 -118.43324 836 ft 159 kts 261°
2026-04-21 03:36 33.93062 -118.44626 827 ft 156 kts 263°
2026-04-21 03:36 33.92893 -118.45909 820 ft 156 kts 253°